TimeCDT,TemperatureF,Dew PointF,Humidity,Sea Level PressureIn,VisibilityMPH,Wind Direction,Wind SpeedMPH,Gust SpeedMPH,PrecipitationIn,Events,Conditions,WindDirDegrees,DateUTC
12:52 AM,80.1,60.1,50,29.66,10.0,South,13.8,-,N/A,,Clear,190,2013-09-09 05:52:00
1:17 AM,80.6,57.2,45,29.78,10.0,West,15.0,21.9,N/A,,Clear,270,2013-09-09 06:17:00
1:52 AM,77.0,61.0,58,29.71,10.0,NW,6.9,-,N/A,,Clear,310,2013-09-09 06:52:00
2:52 AM,72.0,64.9,78,29.71,9.0,NE,4.6,-,N/A,,Clear,40,2013-09-09 07:52:00
3:52 AM,70.0,66.0,87,29.69,8.0,NE,3.5,-,N/A,,Clear,50,2013-09-09 08:52:00
4:52 AM,68.0,66.0,93,29.69,6.0,Calm,Calm,-,N/A,,Clear,0,2013-09-09 09:52:00
5:52 AM,66.9,64.9,93,29.69,6.0,NW,5.8,-,N/A,,Clear,310,2013-09-09 10:52:00
6:52 AM,64.9,63.0,93,29.70,10.0,West,5.8,-,N/A,,Clear,280,2013-09-09 11:52:00
7:52 AM,66.0,63.0,90,29.74,10.0,WNW,5.8,-,N/A,,Clear,300,2013-09-09 12:52:00
8:52 AM,71.1,63.0,75,29.76,10.0,WNW,10.4,-,N/A,,Clear,300,2013-09-09 13:52:00
9:52 AM,78.1,64.0,62,29.76,10.0,NNW,12.7,-,N/A,,Clear,330,2013-09-09 14:52:00
10:52 AM,81.0,64.0,56,29.77,10.0,NW,15.0,21.9,N/A,,Clear,320,2013-09-09 15:52:00
11:52 AM,80.1,62.1,54,29.78,10.0,NW,10.4,-,N/A,,Clear,310,2013-09-09 16:52:00
12:52 PM,82.9,60.1,46,29.78,10.0,NW,15.0,20.7,N/A,,Clear,320,2013-09-09 17:52:00
1:52 PM,82.9,59.0,44,29.78,10.0,NNW,8.1,-,N/A,,Clear,340,2013-09-09 18:52:00
2:52 PM,84.9,55.9,37,29.78,10.0,NW,11.5,-,N/A,,Clear,320,2013-09-09 19:52:00
3:52 PM,84.9,55.0,36,29.78,10.0,North,9.2,-,N/A,,Clear,360,2013-09-09 20:52:00
4:52 PM,84.0,55.0,37,29.81,10.0,NNW,10.4,18.4,N/A,,Clear,340,2013-09-09 21:52:00
5:52 PM,80.1,55.9,43,29.83,10.0,NNW,12.7,-,N/A,,Clear,340,2013-09-09 22:52:00
6:52 PM,78.1,55.0,45,29.84,10.0,NNW,13.8,-,N/A,,Clear,340,2013-09-09 23:52:00
7:52 PM,75.9,55.9,50,29.85,10.0,North,12.7,-,N/A,,Overcast,350,2013-09-10 00:52:00
8:52 PM,73.9,55.9,53,29.86,10.0,North,9.2,-,N/A,,Mostly Cloudy,10,2013-09-10 01:52:00
9:52 PM,71.1,57.9,63,29.86,10.0,North,4.6,-,0.00,,Mostly Cloudy,10,2013-09-10 02:52:00
10:52 PM,69.1,60.1,73,29.89,10.0,ENE,5.8,-,0.00,Rain,Light Rain,60,2013-09-10 03:52:00
11:52 PM,68.0,60.1,76,29.91,10.0,West,3.5,-,0.00,Rain,Light Rain,270,2013-09-10 04:52:00